Home > Weather > Pasco > Past weeks

Flag for U.S.A. Weather for the Past 2 Weeks in Pasco, Washington, U.S.A.

Now
45 °F

Clear.


Feels Like: 43 °F
Forecast: 38 / 51 °F
Wind: 5 mph from Southeast

Location: Tri-Cities Airport

Current Time: Feb 10, 2016 at 7:00:10 PM

Latest Report: Feb 10, 2016 at 5:53 PM


Visibility: 10 mi

Pressure: 30.31 "Hg

Humidity: 76%

Dew point: 38 °F

Location of PascoLocation

Historic Weather in Pasco — Graph

°F

Pasco Temperature Yesterday

Maximum temperature yesterday: 52 °F (at 2:53 PM)
Minimum temperature yesterday: 25 °F (at 5:53 AM)
Average temperature yesterday: 36 °F

High & Low Weather Summary for the Past Weeks

 TemperatureHumidityPressure
High55 °F (Jan 28, 12:53 PM)97% (Jan 27, 3:53 AM)30.69 "Hg (Jan 27, 3:53 AM)
Low23 °F (Feb 1, 2:53 AM)46% (Jan 30, 3:53 PM)29.69 "Hg (Jan 29, 10:53 AM)
Average38 °F79%30.25 "Hg
* Reported Jan 26 5:00 PM — Feb 10 5:53 PM, Pasco, Weather by CustomWeather, © 2016

Note: Actual official high and low records may vary slightly from our data, if they occured in-between our weather recording intervals... More about our weather records

Advertising

Pasco Weather History for the Previous 24 Hours

 ConditionsComfort  
Time TempWeatherWind HumidityBarometerVisibility
5:53 PM
Wed, Feb 10
45 °FClear.5 mph76%30.31 "Hg10 mi
4:53 PM47 °FSunny.5 mph71%30.31 "Hg10 mi
3:53 PM48 °FSunny.5 mph68%30.30 "Hg10 mi
2:53 PM48 °FPassing clouds.3 mph66%30.29 "Hg10 mi
1:53 PM46 °FSunny.3 mph68%30.29 "Hg10 mi
12:53 PM44 °FSunny.No wind73%30.29 "Hg10 mi
11:53 AM42 °FSunny.No wind76%30.32 "Hg10 mi
10:53 AM41 °FSunny.3 mph76%30.33 "Hg10 mi
9:53 AM38 °FSunny.No wind86%30.35 "Hg10 mi
8:53 AM33 °FFog.No wind92%30.33 "Hg5 mi
7:53 AM29 °FPassing clouds.3 mph93%30.31 "Hg5 mi
6:53 AM27 °FIce fog.3 mph92%30.30 "Hg6 mi
5:53 AM26 °FClear.3 mph96%30.28 "Hg10 mi
4:53 AM27 °FClear.5 mph92%30.29 "Hg10 mi
3:53 AM28 °FClear.6 mph93%30.29 "Hg10 mi
2:53 AM29 °FClear.3 mph93%30.30 "Hg10 mi
1:53 AM29 °FClear.No wind93%30.30 "Hg10 mi
12:53 AM30 °FClear.3 mph92%30.29 "Hg10 mi
11:53 PM
Tue, Feb 9
31 °FClear.No wind92%30.29 "Hg10 mi
10:53 PM31 °FClear.No wind89%30.30 "Hg10 mi
9:53 PM32 °FClear.3 mph85%30.31 "Hg10 mi
8:53 PM33 °FClear.No wind88%30.30 "Hg10 mi
7:53 PM37 °FClear.No wind82%30.32 "Hg10 mi
Weather by CustomWeather, © 2016

See weather overviewHow to use our weather pages